GGA1709 TNCA-KATL

Flight info

Callsign GGA1709
Flight time N/A
Altitude 32000
Route VESKA UA315 EBLER JOSES A315 KNSLY RUMFO Y443 SUMAC Y280 OCTAL Q77 STYMY Q77 SHRKS LAIRI LARZZ JJEDI4
Aircraft A321/M-SDE3FGHIRWY/LB1

Departure

Time N/A
Airport Queen Beatrix International Airport (TNCA)

Arrival

Time 2026-05-07 18:52
Airport Hartsfield Jackson Atlanta International Airport (KATL)
Time Latitude Longitude Altitude Speed Heading
2026-05-07 17:45 27.53510 -80.81894 32020 ft 440 kts 333°
2026-05-07 17:45 27.59208 -80.84467 32021 ft 440 kts 333°
2026-05-07 17:46 27.64869 -80.87026 32015 ft 440 kts 333°
2026-05-07 17:46 27.70568 -80.89606 32020 ft 440 kts 333°
2026-05-07 17:47 27.76239 -80.92237 32022 ft 439 kts 331°
2026-05-07 17:47 27.81641 -80.95372 32022 ft 436 kts 325°
2026-05-07 17:48 27.86720 -80.99128 32020 ft 432 kts 320°
2026-05-07 17:48 27.91398 -81.03369 32018 ft 431 kts 316°
2026-05-07 17:49 27.95979 -81.07757 32015 ft 431 kts 316°
2026-05-07 17:49 28.00652 -81.12006 32014 ft 433 kts 320°
2026-05-07 17:50 28.05707 -81.15756 32014 ft 436 kts 325°
2026-05-07 17:50 28.11125 -81.18941 32015 ft 438 kts 330°
2026-05-07 17:51 28.16675 -81.21818 32018 ft 438 kts 330°
2026-05-07 17:51 28.22214 -81.24670 32023 ft 438 kts 330°
2026-05-07 17:52 28.27749 -81.27528 32026 ft 438 kts 330°
2026-05-07 17:52 28.33311 -81.30401 32028 ft 438 kts 330°
2026-05-07 17:53 28.38873 -81.33247 32028 ft 438 kts 330°
2026-05-07 17:53 28.44431 -81.36077 32026 ft 438 kts 330°
2026-05-07 17:54 28.49990 -81.38917 32026 ft 438 kts 330°
2026-05-07 17:54 28.55541 -81.41760 32026 ft 437 kts 330°
2026-05-07 17:55 28.61093 -81.44607 32022 ft 437 kts 330°
2026-05-07 17:55 28.66631 -81.47454 32018 ft 438 kts 330°
2026-05-07 17:56 28.72171 -81.50305 32013 ft 438 kts 330°
2026-05-07 17:56 28.77726 -81.53168 32006 ft 438 kts 329°
2026-05-07 17:57 28.82377 -81.55566 32002 ft 437 kts 329°
2026-05-07 17:57 28.88995 -81.58586 31996 ft 441 kts 335°
2026-05-07 17:58 28.94940 -81.60465 31991 ft 446 kts 341°
2026-05-07 17:58 29.01086 -81.61635 31988 ft 451 kts 347°
2026-05-07 17:59 29.07337 -81.62260 31984 ft 453 kts 349°
2026-05-07 17:59 29.13657 -81.62826 31978 ft 453 kts 348°
2026-05-07 18:00 29.19928 -81.63395 31975 ft 453 kts 348°
2026-05-07 18:00 29.26220 -81.63968 31972 ft 453 kts 348°
2026-05-07 18:01 29.32491 -81.64541 31971 ft 452 kts 348°
2026-05-07 18:01 29.38752 -81.65116 31971 ft 452 kts 347°
2026-05-07 18:02 29.48209 -81.65988 31967 ft 452 kts 347°
2026-05-07 18:03 29.54487 -81.66567 31967 ft 453 kts 347°
2026-05-07 18:03 29.60774 -81.67149 31968 ft 452 kts 347°
2026-05-07 18:04 29.67025 -81.67728 31969 ft 453 kts 347°
2026-05-07 18:04 29.73321 -81.68308 31970 ft 453 kts 347°
2026-05-07 18:05 29.79624 -81.68887 31968 ft 453 kts 347°
2026-05-07 18:05 29.85884 -81.69466 31966 ft 454 kts 347°
2026-05-07 18:06 29.92208 -81.70052 31966 ft 453 kts 347°
2026-05-07 18:06 29.98498 -81.70638 31976 ft 453 kts 347°
2026-05-07 18:07 30.04796 -81.71225 31982 ft 454 kts 347°
2026-05-07 18:07 30.11076 -81.71812 31986 ft 452 kts 347°
2026-05-07 18:08 30.17360 -81.72397 31988 ft 452 kts 347°
2026-05-07 18:08 30.23618 -81.72983 31991 ft 452 kts 346°
2026-05-07 18:09 30.29900 -81.73573 31991 ft 453 kts 346°
2026-05-07 18:09 30.36184 -81.74162 31991 ft 452 kts 346°
2026-05-07 18:10 30.42443 -81.74751 31989 ft 451 kts 346°
2026-05-07 18:10 30.48667 -81.75339 31988 ft 451 kts 346°
2026-05-07 18:11 30.54934 -81.76018 31989 ft 448 kts 343°
2026-05-07 18:11 30.60980 -81.77372 31983 ft 441 kts 336°
2026-05-07 18:12 30.66794 -81.79508 31975 ft 433 kts 330°
2026-05-07 18:12 30.72234 -81.82319 31970 ft 428 kts 326°
2026-05-07 18:13 30.77581 -81.85406 31964 ft 427 kts 325°
2026-05-07 18:13 30.82892 -81.88492 31959 ft 427 kts 325°
2026-05-07 18:14 30.88198 -81.91571 31955 ft 427 kts 325°
2026-05-07 18:14 30.93547 -81.94679 31954 ft 427 kts 325°
2026-05-07 18:15 30.98847 -81.97762 31953 ft 428 kts 325°
2026-05-07 18:15 31.04194 -82.00877 31952 ft 429 kts 325°
2026-05-07 18:16 31.09505 -82.03972 31952 ft 429 kts 325°
2026-05-07 18:16 31.14867 -82.07104 31954 ft 428 kts 325°
2026-05-07 18:17 31.20162 -82.10197 31950 ft 428 kts 325°
2026-05-07 18:17 31.25493 -82.13318 31948 ft 430 kts 325°
2026-05-07 18:18 31.30871 -82.16469 31945 ft 430 kts 325°
2026-05-07 18:18 31.36225 -82.19609 31941 ft 431 kts 325°
2026-05-07 18:19 31.41567 -82.22748 31932 ft 431 kts 325°
2026-05-07 18:19 31.46950 -82.25914 31931 ft 433 kts 325°
2026-05-07 18:20 31.52319 -82.29076 31937 ft 432 kts 325°
2026-05-07 18:20 31.57691 -82.32246 31938 ft 433 kts 325°
2026-05-07 18:21 31.63091 -82.35450 31938 ft 435 kts 325°
2026-05-07 18:21 31.68494 -82.38637 31936 ft 436 kts 326°
2026-05-07 18:22 31.73929 -82.41852 31933 ft 436 kts 325°
2026-05-07 18:22 31.79337 -82.45056 31931 ft 438 kts 325°
2026-05-07 18:23 31.84767 -82.48283 31931 ft 439 kts 325°
2026-05-07 18:23 31.90248 -82.51546 31929 ft 440 kts 325°
2026-05-07 18:24 31.95483 -82.55109 31931 ft 433 kts 319°
2026-05-07 18:24 32.00336 -82.59262 31931 ft 430 kts 314°
2026-05-07 18:25 32.04900 -82.63844 31935 ft 428 kts 312°
2026-05-07 18:25 32.09376 -82.68417 31941 ft 426 kts 311°
2026-05-07 18:26 32.13846 -82.72988 31936 ft 427 kts 311°
2026-05-07 18:26 32.18327 -82.77582 31940 ft 428 kts 311°
2026-05-07 18:27 32.22812 -82.82178 31940 ft 427 kts 310°
2026-05-07 18:27 32.27282 -82.86765 31938 ft 426 kts 310°
2026-05-07 18:28 32.31756 -82.91368 31579 ft 426 kts 310°
2026-05-07 18:28 32.33973 -82.93646 31053 ft 423 kts 310°
2026-05-07 18:28 32.36175 -82.95917 30437 ft 420 kts 310°
2026-05-07 18:28 32.38374 -82.98180 29791 ft 419 kts 310°
2026-05-07 18:29 32.40562 -83.00424 29125 ft 419 kts 310°
2026-05-07 18:29 32.42755 -83.02680 28430 ft 419 kts 310°
2026-05-07 18:29 32.44962 -83.04951 27722 ft 419 kts 310°
2026-05-07 18:29 32.47154 -83.07209 27003 ft 419 kts 311°
2026-05-07 18:30 32.49330 -83.09454 26277 ft 419 kts 311°
2026-05-07 18:30 32.51532 -83.11725 25532 ft 420 kts 311°
2026-05-07 18:30 32.53719 -83.13983 25002 ft 415 kts 311°
2026-05-07 18:30 32.55870 -83.16203 24551 ft 409 kts 311°
2026-05-07 18:31 32.58001 -83.18404 24072 ft 405 kts 311°
2026-05-07 18:31 32.60108 -83.20583 23611 ft 401 kts 310°
2026-05-07 18:31 32.62209 -83.22754 23132 ft 397 kts 311°
2026-05-07 18:31 32.64269 -83.24888 22643 ft 394 kts 311°
2026-05-07 18:32 32.66307 -83.27000 22143 ft 391 kts 310°
2026-05-07 18:32 32.68357 -83.29127 21660 ft 387 kts 310°
2026-05-07 18:32 32.70367 -83.31216 21196 ft 383 kts 310°
2026-05-07 18:32 32.72352 -83.33284 20746 ft 379 kts 310°
2026-05-07 18:33 32.74320 -83.35333 20282 ft 375 kts 310°
2026-05-07 18:33 32.76268 -83.37363 19819 ft 372 kts 310°
2026-05-07 18:33 32.78192 -83.39369 19360 ft 369 kts 310°
2026-05-07 18:33 32.80110 -83.41372 18895 ft 365 kts 310°
2026-05-07 18:34 32.82003 -83.43349 18426 ft 362 kts 310°
2026-05-07 18:34 32.83896 -83.45329 17965 ft 359 kts 310°
2026-05-07 18:34 32.85757 -83.47276 17488 ft 357 kts 310°
2026-05-07 18:34 32.87613 -83.49225 17004 ft 353 kts 310°
2026-05-07 18:35 32.89424 -83.51118 16802 ft 341 kts 310°
2026-05-07 18:35 32.91163 -83.52933 16627 ft 329 kts 310°
2026-05-07 18:35 32.92856 -83.54703 16374 ft 320 kts 309°
2026-05-07 18:35 32.94514 -83.56438 16234 ft 309 kts 309°
2026-05-07 18:36 32.96102 -83.58100 15877 ft 304 kts 309°
2026-05-07 18:36 32.97677 -83.59751 15481 ft 302 kts 309°
2026-05-07 18:36 32.99255 -83.61409 15071 ft 300 kts 309°
2026-05-07 18:36 33.00805 -83.63035 14669 ft 298 kts 309°
2026-05-07 18:37 33.02356 -83.64668 14278 ft 296 kts 310°
2026-05-07 18:37 33.03887 -83.66277 13886 ft 295 kts 309°
2026-05-07 18:37 33.05432 -83.67902 13496 ft 294 kts 310°
2026-05-07 18:37 33.06947 -83.69496 13110 ft 293 kts 310°
2026-05-07 18:38 33.08486 -83.71114 12699 ft 292 kts 310°
2026-05-07 18:38 33.09995 -83.72701 12360 ft 289 kts 310°
2026-05-07 18:38 33.11485 -83.74264 12213 ft 279 kts 311°
2026-05-07 18:38 33.12925 -83.75774 12042 ft 270 kts 310°
2026-05-07 18:39 33.14307 -83.77223 11929 ft 261 kts 310°
2026-05-07 18:39 33.15667 -83.78661 11577 ft 260 kts 310°
2026-05-07 18:39 33.17013 -83.80091 11221 ft 260 kts 310°
2026-05-07 18:39 33.18365 -83.81525 10870 ft 260 kts 310°
2026-05-07 18:40 33.19675 -83.82996 10520 ft 258 kts 308°
2026-05-07 18:40 33.20940 -83.84496 10179 ft 257 kts 308°
2026-05-07 18:40 33.22201 -83.85996 9838 ft 257 kts 308°
2026-05-07 18:40 33.23466 -83.87505 9501 ft 256 kts 308°
2026-05-07 18:41 33.24781 -83.88917 9290 ft 258 kts 316°
2026-05-07 18:41 33.26268 -83.90165 9169 ft 261 kts 318°
2026-05-07 18:41 33.27769 -83.91382 9048 ft 261 kts 318°
2026-05-07 18:41 33.29269 -83.92609 8927 ft 261 kts 318°
2026-05-07 18:42 33.30752 -83.93838 8805 ft 260 kts 318°
2026-05-07 18:42 33.32234 -83.95075 8685 ft 260 kts 317°
2026-05-07 18:42 33.33731 -83.96333 8564 ft 261 kts 318°
2026-05-07 18:42 33.35217 -83.97586 8446 ft 260 kts 318°
2026-05-07 18:43 33.36683 -83.98826 8326 ft 260 kts 318°
2026-05-07 18:43 33.38155 -84.00071 8201 ft 259 kts 318°
2026-05-07 18:43 33.39632 -84.01322 8062 ft 259 kts 318°
2026-05-07 18:43 33.41103 -84.02573 7904 ft 258 kts 318°
2026-05-07 18:44 33.42566 -84.03818 7731 ft 257 kts 318°
2026-05-07 18:44 33.44020 -84.05054 7494 ft 257 kts 318°
2026-05-07 18:44 33.45469 -84.06285 7206 ft 256 kts 318°
2026-05-07 18:44 33.46921 -84.07523 6889 ft 255 kts 318°
2026-05-07 18:45 33.48371 -84.08759 6568 ft 255 kts 319°
2026-05-07 18:45 33.49809 -84.09985 6249 ft 255 kts 319°
2026-05-07 18:45 33.51255 -84.11218 5920 ft 255 kts 319°
2026-05-07 18:45 33.52693 -84.12446 5592 ft 255 kts 320°
2026-05-07 18:46 33.54127 -84.13670 5270 ft 254 kts 320°
2026-05-07 18:46 33.55566 -84.14899 4945 ft 254 kts 320°
2026-05-07 18:46 33.57005 -84.16128 4640 ft 253 kts 320°
2026-05-07 18:46 33.58433 -84.17345 4406 ft 249 kts 321°
2026-05-07 18:47 33.59821 -84.18529 4298 ft 240 kts 321°
2026-05-07 18:47 33.61169 -84.19679 4218 ft 230 kts 321°
2026-05-07 18:47 33.62358 -84.20847 4084 ft 219 kts 304°
2026-05-07 18:47 33.62973 -84.22463 3971 ft 207 kts 283°
2026-05-07 18:48 33.63159 -84.24163 3795 ft 203 kts 275°
2026-05-07 18:48 33.63207 -84.25840 3563 ft 200 kts 272°
2026-05-07 18:48 33.63208 -84.27465 3368 ft 193 kts 271°
2026-05-07 18:48 33.63199 -84.29047 3075 ft 185 kts 271°
2026-05-07 18:49 33.63192 -84.30525 2845 ft 170 kts 272°
2026-05-07 18:49 33.63188 -84.31901 2594 ft 158 kts 272°
2026-05-07 18:49 33.63186 -84.33147 2369 ft 143 kts 272°
2026-05-07 18:49 33.63184 -84.34300 2186 ft 136 kts 273°
2026-05-07 18:50 33.63184 -84.35450 2030 ft 137 kts 273°
2026-05-07 18:50 33.63183 -84.36585 1868 ft 136 kts 273°
2026-05-07 18:50 33.63181 -84.37714 1701 ft 136 kts 274°
2026-05-07 18:50 33.63182 -84.38852 1519 ft 138 kts 272°
2026-05-07 18:51 33.63184 -84.40017 1334 ft 139 kts 273°
2026-05-07 18:51 33.63180 -84.41158 1135 ft 138 kts 273°
2026-05-07 18:51 33.63177 -84.42303 1019 ft 132 kts 273°
2026-05-07 18:51 33.63184 -84.43246 1022 ft 85 kts 270°
2026-05-07 18:52 33.63245 -84.43681 1021 ft 33 kts 302°
2026-05-07 18:52 33.63344 -84.43912 1021 ft 28 kts 281°
2026-05-07 18:52 33.63361 -84.44123 1021 ft 23 kts 268°
2026-05-07 18:52 33.63385 -84.44200 1021 ft 6 kts 341°
2026-05-07 18:53 33.63428 -84.44198 1021 ft 6 kts
2026-05-07 18:53 33.63471 -84.44191 1021 ft 6 kts
2026-05-07 18:53 33.63512 -84.44187 1021 ft 6 kts 354°
2026-05-07 18:53 33.63559 -84.44192 1020 ft 6 kts 355°
2026-05-07 18:54 33.63593 -84.44196 1022 ft 4 kts
2026-05-07 18:54 33.63631 -84.44180 1023 ft 8 kts 34°
2026-05-07 18:54 33.63688 -84.44128 1023 ft 10 kts 29°
2026-05-07 18:54 33.63755 -84.44116 1024 ft 9 kts 360°
2026-05-07 18:55 33.63828 -84.44116 1023 ft 10 kts 357°
2026-05-07 18:55 33.63906 -84.44116 1024 ft 15 kts
2026-05-07 18:55 33.64015 -84.44116 1024 ft 12 kts
2026-05-07 18:55 33.64113 -84.44116 1024 ft 10 kts
2026-05-07 18:56 33.64174 -84.44108 1023 ft 6 kts 26°
2026-05-07 18:56 33.64195 -84.44082 1023 ft 1 kts 20°
2026-05-07 18:56 33.64215 -84.44084 1024 ft 7 kts 352°
2026-05-07 18:56 33.64292 -84.44103 1023 ft 14 kts 348°
2026-05-07 18:57 33.64371 -84.44131 1024 ft 7 kts 308°
2026-05-07 18:57 33.64379 -84.44186 1024 ft 4 kts 272°
2026-05-07 18:57 33.64379 -84.44195 1024 ft 0 kts 271°